Regional Weather Roundup
Issued by NWS

Home | Current Version | Previous Version | Text Only | Print | Product List | Glossary Off
Versions: 1 2 3 4 5 6 7 8 9 10 11 12 13 14 15 16 17 18 19 20 21 22 23 24 25 26 27 28 29 30 31 32 33 34 35 36 37 38 39 40 41 42 43 44 45 46 47 48 49 50

000
ASUS43 KFSD 031502
RWRSD

WEATHER ROUNDUP FOR SOUTH DAKOTA
NATIONAL WEATHER SERVICE SIOUX FALLS SD
1000 AM CDT MON AUG 03 2015

NOTE: "FAIR" INDICATES FEW OR NO CLOUDS BELOW 12,000 FEET WITH NO
SIGNIFICANT WEATHER AND/OR OBSTRUCTIONS TO VISIBILITY.


SDZ001>005-009-010-012>017-031600-
NORTHWEST AND NORTH CENTRAL SOUTH DAKOTA

CITY           SKY/WX    TMP DP  RH WIND       PRES   REMARKS
BUFFALO          N/A     69  52  54 SE8       30.00S
FAITH            N/A     71  50  47 SE9       30.05S
MOBRIDGE       SUNNY     70  58  65 VRB3      30.01S
$$

SDZ012>016-024>037-041>051-057-063-072>074-031600-
SOUTHWEST AND SOUTH CENTRAL SOUTH DAKOTA

CITY           SKY/WX    TMP DP  RH WIND       PRES   REMARKS
RAPID CTY ARPT MOSUNNY   71  57  61 SE7       30.06R
PIERRE         SUNNY     71  58  63 CALM      30.01S
CUSTER         MOSUNNY   66  52  60 E9        30.16S
PHILIP         SUNNY     70  58  65 E6        30.03S
PINE RIDGE     MOSUNNY   75  60  59 SE9       30.04R
WINNER           N/A     75  59  57 SE3       30.02S
$$

SDZ004>011-016>023-039-040-031600-
NORTHEAST SOUTH DAKOTA

CITY           SKY/WX    TMP DP  RH WIND       PRES   REMARKS
ABERDEEN       SUNNY     70  54  56 CALM      30.00S
WATERTOWN      SUNNY     72  52  49 VRB5      30.00R
BROOKINGS      SUNNY     70  55  60 NW7       30.02S
SISSETON         N/A     72  52  49 NW9       29.96S
$$

SDZ017-020-022-023-036>040-048>070-031600-
SOUTHEAST SOUTH DAKOTA

CITY           SKY/WX    TMP DP  RH WIND       PRES   REMARKS
SIOUX FALLS    MOSUNNY   72  56  57 SW7       30.00S
HURON          SUNNY     71  62  73 W3        30.00R
CHAMBERLAIN    SUNNY     70  60  70 CALM      30.02S
MITCHELL       SUNNY     71  61  70 S5        30.01S
YANKTON        SUNNY     72  63  73 CALM      29.99S
$$

ABBREVIATIONS USED IN REMARKS
   TC - TEMPERATURE IN CELSIUS
  WCI - WIND CHILL INDEX
   HX - HEAT INDEX
  VSB - VISIBILITY




USA.gov is the U.S. government's official web portal to all federal, state and local government web resources and services.